User: anonymous   Login
Location: Strohbehn Observatory
(42.4649°N, 93.8239°W)
Time: 04:11:51
(UTC-06:00)
Language:

SL-16 R/B - Orbit

View from above orbital plane
View from above orbital plane
View from above satellite
View from above satellite

Ground track
Ground track

The orbit data is extracted from the following two-line orbital elements,

1 31793U 07029B   14326.15255711  .00000270  00000-0  16626-3 0  1270
2 31793 070.9759 199.3892 0001787 272.6858 257.7614 14.14296984382085
Epoch (UTC): 22 November 2014 03:39:40
Eccentricity: 0.0001787
inclination: 70.9759°
perigee height: 843 km
apogee height: 846 km
right ascension of ascending node: 199.3892°
argument of perigee: 272.6858°
revolutions per day: 14.14296984
mean anomaly at epoch: 257.7614°
orbit number at epoch: 38208

The dashed part of the orbit path shows where the satellite is in the earth's shadow,  

DLR